TSO124 UHWW-UUDD

Flight info

Callsign TSO124
Flight time N/A
Altitude 36000
Route UHWW/07R K0896F360 DOLM2F DOLMA B356 TD B355 HAB L168 UNILA N742 UHT T791 KTL T187 ROMTA ROMT3L UUDD/13R
Aircraft B773/H-L/L

Departure

Time 2026-04-25 21:33
Airport Vladivostok International Airport (UHWW)

Arrival

Time N/A
Airport Domodedovo International Airport (UUDD)
Time Latitude Longitude Altitude Speed Heading
2026-04-25 20:54 43.39728 132.16475 38 ft 0 kts 151°
2026-04-25 21:18 43.39728 132.16474 38 ft 1 kts 151°
2026-04-25 21:18 43.39745 132.16462 37 ft 3 kts 151°
2026-04-25 21:19 43.39762 132.16450 36 ft 3 kts 161°
2026-04-25 21:19 43.39780 132.16443 36 ft 3 kts 178°
2026-04-25 21:19 43.39797 132.16445 37 ft 3 kts 199°
2026-04-25 21:19 43.39813 132.16454 37 ft 3 kts 220°
2026-04-25 21:20 43.39826 132.16472 38 ft 3 kts 238°
2026-04-25 21:20 43.39831 132.16484 38 ft 3 kts 241°
2026-04-25 21:20 43.39844 132.16517 36 ft 3 kts 241°
2026-04-25 21:20 43.39847 132.16525 36 ft 0 kts 241°
2026-04-25 21:23 43.39845 132.16519 38 ft 4 kts 241°
2026-04-25 21:23 43.39814 132.16442 38 ft 13 kts 241°
2026-04-25 21:23 43.39758 132.16303 38 ft 18 kts 244°
2026-04-25 21:24 43.39787 132.16190 38 ft 13 kts 323°
2026-04-25 21:24 43.39867 132.16121 38 ft 13 kts 320°
2026-04-25 21:24 43.39869 132.16001 37 ft 14 kts 244°
2026-04-25 21:24 43.39824 132.15886 37 ft 14 kts 241°
2026-04-25 21:25 43.39779 132.15773 37 ft 14 kts 241°
2026-04-25 21:25 43.39733 132.15661 37 ft 14 kts 241°
2026-04-25 21:25 43.39687 132.15547 37 ft 14 kts 240°
2026-04-25 21:25 43.39641 132.15434 38 ft 14 kts 240°
2026-04-25 21:26 43.39594 132.15322 38 ft 14 kts 240°
2026-04-25 21:26 43.39549 132.15207 38 ft 14 kts 242°
2026-04-25 21:26 43.39505 132.15093 38 ft 14 kts 242°
2026-04-25 21:26 43.39458 132.14980 37 ft 14 kts 240°
2026-04-25 21:27 43.39412 132.14866 37 ft 14 kts 240°
2026-04-25 21:27 43.39367 132.14755 37 ft 14 kts 241°
2026-04-25 21:27 43.39320 132.14640 37 ft 14 kts 241°
2026-04-25 21:27 43.39275 132.14528 38 ft 14 kts 241°
2026-04-25 21:28 43.39225 132.14404 38 ft 14 kts 241°
2026-04-25 21:28 43.39179 132.14292 38 ft 14 kts 241°
2026-04-25 21:28 43.39133 132.14179 38 ft 14 kts 241°
2026-04-25 21:28 43.39088 132.14066 38 ft 14 kts 241°
2026-04-25 21:29 43.39042 132.13953 38 ft 14 kts 241°
2026-04-25 21:29 43.38996 132.13839 38 ft 14 kts 241°
2026-04-25 21:29 43.38950 132.13726 36 ft 14 kts 241°
2026-04-25 21:29 43.38905 132.13613 38 ft 14 kts 241°
2026-04-25 21:30 43.38859 132.13499 38 ft 14 kts 241°
2026-04-25 21:30 43.38814 132.13387 38 ft 14 kts 241°
2026-04-25 21:30 43.38772 132.13272 38 ft 13 kts 256°
2026-04-25 21:30 43.38786 132.13196 38 ft 10 kts 310°
2026-04-25 21:31 43.38834 132.13150 38 ft 5 kts 327°
2026-04-25 21:31 43.38866 132.13122 39 ft 5 kts 330°
2026-04-25 21:31 43.38909 132.13103 38 ft 10 kts 356°
2026-04-25 21:31 43.38970 132.13172 37 ft 11 kts 61°
2026-04-25 21:32 43.38977 132.13189 37 ft 0 kts 61°
2026-04-25 21:32 43.38985 132.13210 37 ft 12 kts 61°
2026-04-25 21:32 43.39122 132.13552 38 ft 82 kts 61°
2026-04-25 21:32 43.39541 132.14581 40 ft 162 kts 60°
2026-04-25 21:33 43.40143 132.16057 658 ft 178 kts 60°
2026-04-25 21:33 43.40742 132.17558 1660 ft 184 kts 60°
2026-04-25 21:33 43.41371 132.19166 2119 ft 202 kts 60°
2026-04-25 21:33 43.42079 132.20987 2298 ft 227 kts 60°
2026-04-25 21:34 43.42849 132.22965 2770 ft 244 kts 60°
2026-04-25 21:34 43.43694 132.25102 3194 ft 262 kts 58°
2026-04-25 21:34 43.44617 132.27299 3736 ft 275 kts 57°
2026-04-25 21:34 43.45587 132.29636 4350 ft 288 kts 57°
2026-04-25 21:35 43.46584 132.32080 5014 ft 297 kts 57°
2026-04-25 21:35 43.47595 132.34585 5778 ft 302 kts 58°
2026-04-25 21:35 43.48629 132.37118 6497 ft 304 kts 54°
2026-04-25 21:35 43.50064 132.39190 7049 ft 297 kts 24°
2026-04-25 21:36 43.51892 132.40478 7635 ft 298 kts 20°
2026-04-25 21:36 43.53754 132.41822 8355 ft 304 kts 22°
2026-04-25 21:36 43.55608 132.43245 9100 ft 308 kts 24°
2026-04-25 21:36 43.57468 132.44697 9792 ft 313 kts 24°
2026-04-25 21:37 43.59379 132.46204 10367 ft 322 kts 24°
2026-04-25 21:37 43.60040 132.46726 10471 ft 329 kts 24°
2026-04-25 21:37 43.63542 132.49494 10794 ft 368 kts 25°
2026-04-25 21:37 43.65833 132.51316 11045 ft 389 kts 26°
2026-04-25 21:38 43.68210 132.53221 11668 ft 399 kts 26°
2026-04-25 21:38 43.70628 132.55164 12418 ft 405 kts 26°
2026-04-25 21:38 43.73075 132.57130 13239 ft 409 kts 26°
2026-04-25 21:38 43.75513 132.59088 14004 ft 413 kts 26°
2026-04-25 21:39 43.78013 132.61093 14640 ft 419 kts 26°
2026-04-25 21:39 43.80545 132.63133 15286 ft 423 kts 27°
2026-04-25 21:39 43.82973 132.65503 15780 ft 434 kts 36°
2026-04-25 21:39 43.85269 132.68289 16413 ft 441 kts 40°
2026-04-25 21:40 43.87510 132.71217 17138 ft 445 kts 41°
2026-04-25 21:40 43.89768 132.74187 17813 ft 450 kts 40°
2026-04-25 21:40 43.92075 132.77167 18386 ft 456 kts 40°
2026-04-25 21:40 43.94433 132.80152 18952 ft 461 kts 39°
2026-04-25 21:41 43.96790 132.83094 19559 ft 464 kts 39°
2026-04-25 21:41 43.99202 132.86087 20170 ft 467 kts 39°
2026-04-25 21:41 44.01641 132.89105 20726 ft 472 kts 39°
2026-04-25 21:41 44.04101 132.92152 21281 ft 476 kts 39°
2026-04-25 21:42 44.06582 132.95232 21827 ft 480 kts 39°
2026-04-25 21:42 44.09088 132.98347 22368 ft 485 kts 39°
2026-04-25 21:42 44.11611 133.01490 22876 ft 489 kts 39°
2026-04-25 21:42 44.14152 133.04660 23426 ft 493 kts 39°
2026-04-25 21:43 44.16681 133.07817 23857 ft 497 kts 39°
2026-04-25 21:43 44.19265 133.11045 24286 ft 500 kts 39°
2026-04-25 21:43 44.21920 133.14186 24707 ft 502 kts 35°
2026-04-25 21:43 44.24707 133.17151 25136 ft 504 kts 33°
2026-04-25 21:44 44.27559 133.20030 25548 ft 507 kts 32°
2026-04-25 21:44 44.30441 133.22897 25959 ft 511 kts 32°
2026-04-25 21:44 44.36244 133.28739 26748 ft 518 kts 32°
2026-04-25 21:45 44.39113 133.31678 27123 ft 521 kts 32°
2026-04-25 21:45 44.40103 133.32699 27254 ft 522 kts 32°
2026-04-25 21:45 44.44977 133.37754 27848 ft 527 kts 33°
2026-04-25 21:45 44.47933 133.40832 28198 ft 530 kts 33°
2026-04-25 21:46 44.50896 133.43919 28533 ft 533 kts 32°
2026-04-25 21:46 44.53880 133.47030 28859 ft 536 kts 32°
2026-04-25 21:46 44.56876 133.50157 29200 ft 538 kts 32°
2026-04-25 21:46 44.59875 133.53289 29653 ft 537 kts 32°
2026-04-25 21:47 44.62863 133.56416 30108 ft 536 kts 32°
2026-04-25 21:47 44.65807 133.59500 30520 ft 534 kts 32°
2026-04-25 21:47 44.68784 133.62620 30913 ft 533 kts 32°
2026-04-25 21:47 44.71751 133.65735 31278 ft 533 kts 32°
2026-04-25 21:48 44.74720 133.68854 31632 ft 532 kts 32°
2026-04-25 21:48 44.77681 133.71972 31988 ft 531 kts 32°
2026-04-25 21:48 44.80636 133.75085 32343 ft 530 kts 32°
2026-04-25 21:48 44.83583 133.78196 32696 ft 529 kts 32°
2026-04-25 21:49 44.86533 133.81312 33040 ft 529 kts 32°
2026-04-25 21:49 44.89473 133.84421 33373 ft 528 kts 32°
2026-04-25 21:49 44.92365 133.87484 33694 ft 527 kts 32°
2026-04-25 21:49 44.95322 133.90521 33989 ft 525 kts 30°
2026-04-25 21:50 44.98309 133.93492 34239 ft 524 kts 30°
2026-04-25 21:50 45.01298 133.96429 34490 ft 523 kts 30°
2026-04-25 21:50 45.04290 133.99367 34742 ft 523 kts 30°
2026-04-25 21:50 45.06261 134.01310 34903 ft 522 kts 30°
2026-04-25 21:51 45.10243 134.05261 35181 ft 523 kts 30°
2026-04-25 21:51 45.13218 134.08231 35310 ft 525 kts 31°
2026-04-25 21:51 45.16202 134.11220 35422 ft 527 kts 31°
2026-04-25 21:51 45.19156 134.14189 35546 ft 528 kts 31°
2026-04-25 21:52 45.22155 134.17208 35684 ft 529 kts 31°
2026-04-25 21:52 45.25157 134.20233 35808 ft 530 kts 31°
2026-04-25 21:52 45.28168 134.23271 35868 ft 532 kts 31°
2026-04-25 21:53 45.34208 134.29373 35903 ft 533 kts 31°
2026-04-25 21:53 45.40201 134.35446 35911 ft 532 kts 31°
2026-04-25 21:54 45.46219 134.41559 35923 ft 531 kts 31°
2026-04-25 21:54 45.52219 134.47669 35923 ft 530 kts 31°
2026-04-25 21:55 45.58219 134.53793 35922 ft 530 kts 31°
2026-04-25 21:55 45.64180 134.59895 35922 ft 531 kts 31°
2026-04-25 21:56 45.70178 134.66055 35935 ft 531 kts 31°
2026-04-25 21:56 45.76180 134.72232 35927 ft 532 kts 31°
2026-04-25 21:57 45.82188 134.78434 35928 ft 533 kts 31°
2026-04-25 21:57 45.88303 134.84190 35919 ft 524 kts 19°
2026-04-25 21:58 45.95110 134.87374 35936 ft 508 kts